TimeCDT,TemperatureF,Dew PointF,Humidity,Sea Level PressureIn,VisibilityMPH,Wind Direction,Wind SpeedMPH,Gust SpeedMPH,PrecipitationIn,Events,Conditions,WindDirDegrees,DateUTC
12:53 AM,59.0,55.9,90,29.80,10.0,ESE,8.1,-,N/A,,Clear,120,2013-05-17 05:53:00
1:53 AM,60.1,57.9,93,29.80,10.0,ESE,10.4,-,N/A,,Overcast,120,2013-05-17 06:53:00
2:53 AM,60.1,57.0,90,29.81,9.0,SE,8.1,-,N/A,,Partly Cloudy,130,2013-05-17 07:53:00
3:53 AM,59.0,57.0,93,29.80,7.0,SE,8.1,-,N/A,,Clear,140,2013-05-17 08:53:00
4:53 AM,60.1,57.9,93,29.80,9.0,SSE,9.2,-,N/A,,Mostly Cloudy,150,2013-05-17 09:53:00
5:53 AM,60.1,57.9,93,29.79,8.0,ESE,10.4,-,0.00,Rain,Light Rain,120,2013-05-17 10:53:00
7:41 AM,60.8,59.0,94,29.83,6.0,ESE,6.9,-,N/A,,Overcast,120,2013-05-17 12:41:00
7:53 AM,61.0,59.0,93,29.82,5.0,SE,8.1,-,0.00,Rain,Light Rain,130,2013-05-17 12:53:00
8:53 AM,63.0,60.1,90,29.83,6.0,SSE,5.8,-,0.00,,Clear,160,2013-05-17 13:53:00
9:42 AM,66.2,62.6,88,29.82,8.0,SSE,9.2,-,N/A,,Partly Cloudy,160,2013-05-17 14:42:00
9:53 AM,66.9,62.1,84,29.82,8.0,South,5.8,-,N/A,,Clear,180,2013-05-17 14:53:00
10:53 AM,70.0,62.1,76,29.81,10.0,Variable,4.6,-,N/A,,Partly Cloudy,0,2013-05-17 15:53:00
11:53 AM,73.0,61.0,66,29.81,10.0,Variable,3.5,-,N/A,,Clear,0,2013-05-17 16:53:00
12:53 PM,75.9,61.0,60,29.80,10.0,Calm,Calm,-,N/A,,Clear,0,2013-05-17 17:53:00
2:53 PM,82.9,62.1,49,29.76,10.0,South,10.4,-,N/A,,Clear,190,2013-05-17 19:53:00
3:53 PM,84.9,60.1,43,29.75,10.0,SSE,8.1,-,N/A,,Clear,150,2013-05-17 20:53:00
4:53 PM,87.1,61.0,41,29.73,10.0,South,9.2,-,N/A,,Clear,170,2013-05-17 21:53:00
5:53 PM,87.1,59.0,39,29.71,10.0,South,8.1,-,N/A,,Clear,190,2013-05-17 22:53:00
6:53 PM,87.1,59.0,39,29.70,10.0,SSE,10.4,-,N/A,,Clear,150,2013-05-17 23:53:00
7:53 PM,82.0,60.1,47,29.72,10.0,SE,8.1,-,N/A,,Clear,140,2013-05-18 00:53:00
8:53 PM,79.0,61.0,54,29.73,10.0,SE,9.2,-,N/A,,Clear,140,2013-05-18 01:53:00
9:53 PM,75.9,61.0,60,29.74,10.0,SSE,8.1,-,N/A,,Clear,160,2013-05-18 02:53:00
10:53 PM,75.9,61.0,60,29.75,10.0,South,10.4,-,N/A,,Mostly Cloudy,170,2013-05-18 03:53:00
11:08 PM,75.2,55.4,50,29.80,10.0,West,23.0,31.1,N/A,Thunderstorm,Thunderstorm,270,2013-05-18 04:08:00
11:18 PM,71.6,57.2,60,29.85,10.0,WSW,13.8,28.8,0.00,Rain-Thunderstorm,Light Thunderstorms and Rain,250,2013-05-18 04:18:00
11:25 PM,66.2,60.8,83,29.84,1.5,WNW,13.8,24.2,0.31,Rain-Thunderstorm,Heavy Thunderstorms and Rain,300,2013-05-18 04:25:00
11:36 PM,66.2,60.8,83,29.82,3.0,WNW,12.7,20.7,0.44,Rain-Thunderstorm,Heavy Thunderstorms and Rain,300,2013-05-18 04:36:00
11:53 PM,66.0,61.0,84,29.81,9.0,WNW,8.1,-,0.46,Rain-Thunderstorm,Light Rain,290,2013-05-18 04:53:00